Temp
30 30 29 28 31 31 34 35 33 29 32 34 33 37 36 34 37 34 33 38 39 40 40 39 40 41 42 43 44 45 46 49 53 56 57 60 63 62
29 27 27 27 27 28 30 35 35 33 30 34 34 34 35 35 35 31 33 36 37 38 39 40 40 41 41 41 42 42 43 44 47 50 53 55 58 60
28 27 26 27 25 25 27 29 34 34 32 34 34 33 32 31 32 30 33 32 31 38 38 39 39 39 40 39 40 40 39 40 41 44 47 49 52 54
26 26 26 29 23 23 21 25 31 33 33 26 26 28 28 27 31 29 31 33 31 36 36 37 38 39 39 39 39 39 39 37 37 38 40 43 45 48
26 24 24 25 23 20 19 18 21 28 22 21 18 21 23 23 23 27 28 27 32 35 34 35 35 38 38 39 39 39 38 38 37 36 35 37 39 41
28 26 24 23 19 20 22 15 20 19 19 17 17 18 19 20 20 19 23 25 24 29 32 32 33 34 36 37 39 38 38 37 37 36 35 34 35 36
28 29 27 29 30 25 21 14 18 16 16 16 14 12 10 12 11 16 20 23 22 21 25 27 27 27 31 33 36 38 37 36 36 36 35 34 33 34
27 27 29 31 31 31 30 28 23 16 11 14 11 8 5 7 10 17 14 15 17 22 16 22 25 23 25 31 35 36 36 36 35 34 34 33 33 32
25 26 28 29 28 28 30 30 29 28 26 20 15 11 12 11 15 22 19 18 17 20 21 20 23 20 24 28 34 34 35 34 34 33 32 32 31 31
18 18 20 17 21 25 24 21 18 18 18 21 13 11 13 16 20 24 23 22 22 20 18 19 18 19 22 22 30 32 33 33 33 32 31 30 30 30
13 12 13 9 23 29 14 10 11 10 24 29 28 28 26 29 25 21 16 22 16 8 8 11 13 15 14 14 20 27 29 31 32 32 30 29 27 26
17 15 25 17 30 27 13 11 8 7 4 7 8 12 11 12 22 9 11 11 3 7 7 9 9 11 8 9 16 16 18 25 29 31 32 30 27 20
18 15 13 29 30 29 24 12 12 5 6 2 1 1 3 5 6 5 -1 6 1 -0 9 9 4 1 3 3 8 11 14 15 17 20 26 29 29 23
15 13 12 29 30 29 22 25 27 9 3 2 3 3 3 4 5 4 2 2 0 6 7 5 5 2 -2 -2 0 8 7 13 13 13 14 22 24 25
18 19 24 29 29 25 28 27 14 11 5 4 2 2 1 5 7 11 15 17 16 15 17 12 11 3 2 -2 1 1 2 8 10 9 11 12 11 11
23 21 16 16 9 8 13 13 9 9 9 5 5 5 11 13 14 15 14 14 13 13 19 16 14 14 7 8 7 3 6 5 7 7 11 12 15 15
16 13 12 12 12 12 11 11 11 13 11 6 7 10 12 14 15 15 16 14 9 7 8 14 16 17 12 10 6 4 6 7 7 12 14 10 12 15
17 10 2 1 9 9 8 8 7 8 9 11 9 12 11 11 13 14 14 10 9 11 10 9 8 11 14 15 18 6 4 6 8 12 13 6 8 12
11 8 6 6 8 13 12 9 7 7 11 10 9 9 12 14 11 13 11 12 12 11 11 12 10 5 -1 -4 10 22 7 7 8 8 10 9 5 10
13 10 10 11 13 16 15 14 11 11 11 9 4 4 4 11 8 9 9 3 8 12 12 12 10 9 2 -2 -1 6 23 9 6 3 6 9 12 21
16 16 15 16 16 18 17 15 12 12 9 5 4 5 -3 7 5 6 6 5 6 12 10 10 11 13 12 10 -1 2 9 21 19 13 10 4 5 7
17 18 18 17 18 16 12 12 10 8 7 6 -3 -4 -5 2 1 2 -0 3 8 8 10 12 14 14 13 10 3 -5 6 7 17 20 19 16 -0 -3
15 17 16 16 15 14 15 13 14 11 10 9 7 4 -8 -0 2 2 1 5 8 7 8 7 10 10 10 9 4 1 4 4 9 8 9 17 17 18
MSLP
1023.38 1023.54 1023.75 1023.71 1023.64 1024.32 1024.33 1024.10 1023.97 1023.65 1023.40 1023.66 1023.66 1023.59 1023.29 1023.26 1023.07 1023.13 1022.79 1022.08 1021.29 1020.53 1019.56 1018.72 1017.49 1016.16 1014.87 1013.40 1011.87 1010.17 1008.68 1006.91 1004.89 1003.00 1001.80 1001.51 1001.66 1001.90
1023.77 1023.88 1023.92 1023.86 1024.26 1024.51 1024.57 1024.35 1024.05 1023.98 1023.91 1023.88 1023.78 1023.75 1023.45 1023.61 1023.59 1023.30 1022.90 1022.47 1021.87 1020.99 1020.08 1019.10 1018.12 1016.87 1015.80 1014.46 1012.95 1011.52 1010.59 1008.98 1007.18 1005.39 1004.40 1003.27 1002.82 1002.62
1023.97 1024.12 1024.00 1024.16 1024.64 1024.55 1024.74 1024.61 1024.41 1024.24 1024.08 1023.99 1024.03 1023.85 1023.77 1023.92 1023.90 1023.46 1023.16 1022.78 1022.43 1021.49 1020.79 1019.76 1018.71 1017.75 1016.58 1015.42 1014.26 1013.16 1012.36 1011.32 1010.54 1008.71 1007.20 1006.01 1005.08 1004.81
1023.75 1023.96 1024.32 1024.63 1024.46 1024.95 1025.10 1025.04 1024.87 1024.67 1024.51 1024.64 1024.61 1024.36 1024.45 1024.51 1024.12 1023.86 1023.63 1023.23 1022.78 1022.08 1021.52 1020.66 1019.56 1018.53 1017.47 1016.51 1015.51 1014.27 1013.59 1012.68 1012.44 1010.94 1010.31 1008.99 1007.71 1007.33
1023.62 1023.93 1024.41 1024.67 1024.61 1025.06 1025.36 1025.66 1025.38 1025.22 1025.16 1025.13 1025.35 1025.26 1025.02 1025.02 1024.64 1024.13 1024.05 1023.86 1023.20 1022.67 1022.17 1021.54 1020.69 1019.53 1018.40 1017.37 1016.55 1015.81 1015.04 1014.32 1013.14 1012.07 1012.07 1011.18 1010.36 1009.97
1024.08 1023.93 1024.56 1024.72 1024.80 1025.35 1025.58 1026.00 1025.75 1025.93 1025.74 1025.50 1025.94 1026.34 1026.17 1025.59 1025.32 1025.10 1024.69 1024.44 1024.03 1023.44 1022.85 1022.38 1021.76 1020.88 1019.76 1018.84 1017.78 1017.23 1016.63 1015.78 1015.14 1014.77 1014.08 1013.15 1012.62 1012.75
1024.00 1024.10 1024.62 1024.40 1024.74 1025.37 1025.95 1026.21 1026.05 1026.12 1025.96 1026.02 1026.81 1027.02 1026.85 1026.55 1026.39 1025.82 1025.31 1024.81 1024.80 1024.64 1023.91 1023.28 1022.76 1022.06 1021.09 1020.25 1019.31 1018.48 1017.89 1017.35 1016.82 1016.32 1015.73 1015.20 1014.84 1014.78
1023.85 1024.38 1024.49 1024.71 1025.09 1025.58 1025.95 1026.15 1026.34 1026.07 1025.98 1026.54 1027.33 1027.78 1027.34 1027.09 1026.78 1026.16 1025.59 1025.40 1025.31 1025.07 1024.97 1024.34 1023.78 1023.24 1022.50 1021.48 1020.77 1019.92 1019.24 1018.70 1018.55 1018.19 1017.55 1017.32 1017.43 1017.59
1024.17 1024.80 1024.96 1025.15 1025.89 1026.22 1026.31 1026.12 1026.14 1025.94 1026.06 1026.68 1027.14 1027.47 1027.40 1026.99 1026.61 1026.04 1025.78 1025.74 1025.90 1025.65 1025.38 1025.14 1024.53 1024.26 1023.81 1022.97 1021.87 1021.13 1020.53 1020.24 1020.04 1019.67 1019.42 1019.25 1019.09 1018.65
1024.61 1025.11 1025.46 1026.06 1026.62 1026.86 1026.90 1026.84 1026.92 1027.10 1027.06 1026.85 1027.12 1027.46 1027.31 1026.56 1026.25 1025.75 1025.70 1025.90 1026.06 1026.00 1025.90 1025.92 1025.61 1025.33 1024.60 1024.21 1023.26 1022.38 1021.80 1021.51 1021.39 1021.21 1020.99 1020.71 1020.56 1020.34
1025.22 1025.73 1026.30 1026.44 1026.70 1026.72 1027.17 1027.42 1027.46 1027.76 1026.95 1026.64 1026.60 1026.64 1026.70 1026.15 1025.91 1025.91 1026.18 1026.26 1026.73 1026.98 1026.79 1026.85 1026.45 1026.28 1025.80 1025.56 1024.75 1024.03 1023.38 1022.75 1022.40 1022.31 1022.42 1022.34 1022.19 1022.03
1025.27 1025.88 1025.62 1026.54 1026.10 1026.91 1027.50 1027.71 1028.18 1028.20 1028.02 1027.54 1027.87 1027.71 1027.65 1027.44 1026.81 1027.26 1026.88 1027.15 1027.70 1027.78 1027.14 1027.22 1027.09 1026.93 1027.05 1026.73 1025.95 1025.40 1024.85 1024.37 1023.76 1023.12 1022.87 1022.99 1023.41 1023.38
1025.27 1025.73 1026.10 1025.72 1026.09 1026.42 1027.20 1027.81 1028.02 1028.95 1028.72 1028.39 1028.34 1028.78 1028.61 1028.29 1028.01 1027.89 1028.08 1027.82 1027.69 1027.78 1027.50 1027.13 1027.55 1027.64 1027.55 1027.46 1027.10 1026.69 1026.22 1025.77 1025.30 1024.97 1024.50 1024.03 1023.62 1023.74
1025.23 1025.68 1026.26 1025.64 1025.84 1026.17 1027.20 1027.28 1027.21 1028.72 1029.37 1029.12 1029.04 1029.16 1028.92 1028.74 1028.52 1028.35 1028.24 1028.18 1028.13 1027.84 1027.45 1027.20 1027.45 1027.73 1027.85 1028.45 1028.31 1027.56 1027.29 1026.70 1026.27 1026.05 1025.70 1025.18 1024.80 1024.42
1025.23 1025.59 1025.60 1025.62 1025.88 1026.48 1026.67 1027.00 1027.80 1028.35 1029.05 1029.86 1030.03 1029.81 1029.05 1028.74 1028.45 1028.17 1027.86 1027.73 1027.68 1027.57 1027.31 1027.27 1027.33 1027.61 1027.66 1028.39 1028.78 1028.71 1028.12 1027.62 1027.19 1026.99 1026.48 1026.17 1026.02 1025.68
1025.01 1025.36 1025.82 1026.40 1027.18 1027.85 1028.12 1028.20 1028.44 1028.42 1028.49 1029.15 1029.34 1028.91 1028.78 1028.33 1028.22 1028.15 1028.15 1028.22 1028.15 1028.13 1027.85 1027.76 1027.67 1027.57 1028.16 1028.35 1028.49 1028.74 1028.26 1028.34 1027.86 1027.51 1027.03 1026.66 1026.21 1026.00
1025.10 1025.77 1026.38 1026.99 1027.50 1028.01 1028.37 1028.43 1028.53 1028.39 1028.50 1028.76 1028.86 1028.94 1028.79 1028.58 1028.58 1028.36 1028.35 1028.46 1028.75 1028.75 1028.70 1028.39 1028.12 1027.97 1028.19 1028.32 1028.71 1028.76 1028.67 1028.37 1028.03 1027.57 1027.15 1027.13 1026.86 1026.50
1024.93 1025.70 1026.39 1027.10 1027.66 1028.19 1028.59 1028.69 1028.42 1028.52 1028.53 1028.68 1028.92 1028.82 1029.02 1029.05 1028.90 1028.80 1028.75 1028.93 1029.09 1029.11 1029.04 1028.80 1028.67 1028.43 1028.36 1028.23 1028.04 1028.56 1028.55 1028.55 1028.10 1027.63 1027.40 1027.52 1027.32 1026.75
1024.69 1025.44 1025.97 1026.66 1027.26 1027.68 1027.98 1028.16 1028.46 1028.16 1028.54 1028.74 1028.96 1029.13 1029.04 1029.10 1029.20 1029.26 1029.30 1029.35 1029.40 1029.36 1029.26 1029.07 1029.03 1029.06 1029.31 1029.30 1028.67 1027.96 1028.53 1028.37 1028.20 1027.95 1027.72 1027.55 1027.54 1026.81
1024.54 1025.07 1025.63 1026.19 1026.65 1026.88 1027.15 1027.69 1028.00 1028.17 1028.46 1028.87 1029.16 1029.28 1029.29 1029.32 1029.62 1029.67 1029.68 1029.65 1029.59 1029.52 1029.50 1029.33 1029.28 1029.23 1029.45 1029.46 1029.48 1028.83 1028.02 1028.26 1028.18 1028.41 1028.01 1027.70 1027.40 1026.61
1024.11 1024.55 1025.03 1025.45 1025.84 1026.12 1026.44 1026.96 1027.41 1028.01 1028.30 1028.74 1029.22 1029.41 1029.51 1029.58 1029.98 1029.93 1029.90 1029.87 1029.84 1029.70 1029.72 1029.59 1029.29 1029.08 1029.02 1029.30 1029.61 1029.44 1028.91 1028.27 1028.04 1028.03 1027.90 1027.93 1027.59 1027.05
1023.59 1024.04 1024.40 1024.82 1025.08 1025.56 1026.02 1026.60 1027.23 1027.94 1028.37 1028.72 1029.20 1029.44 1029.64 1029.73 1030.08 1030.16 1030.21 1030.20 1030.05 1029.93 1029.88 1029.72 1029.37 1029.18 1029.20 1029.61 1030.14 1029.99 1029.70 1029.25 1028.59 1028.30 1028.16 1028.05 1028.08 1027.54
1023.32 1023.78 1024.02 1024.22 1024.77 1025.20 1025.75 1026.35 1026.84 1027.54 1028.02 1028.48 1028.99 1029.44 1029.67 1029.95 1030.04 1030.15 1030.20 1030.14 1030.15 1030.25 1030.15 1030.16 1029.99 1029.88 1029.86 1030.00 1030.25 1030.33 1030.24 1029.87 1029.40 1029.03 1028.77 1028.33 1028.00 1027.46
Wind_Speed
4 4 3 3 4 3 2 0 1 1 2 2 3 4 5 4 9 6 7 20 23 24 27 27 30 30 30 30 32 38 38 36 34 33 31 5 7 7
3 5 3 3 4 2 2 1 1 0 2 1 2 2 4 5 8 6 7 16 20 23 25 27 28 30 30 31 32 34 39 41 39 38 34 36 26 3
4 4 5 5 3 4 2 1 1 1 2 2 1 3 5 6 4 5 6 7 8 23 24 27 28 29 30 32 32 33 32 36 40 39 39 38 37 35
5 5 5 4 5 4 2 3 1 3 2 1 4 3 3 5 5 5 6 7 6 18 22 24 28 28 30 30 32 32 34 34 29 38 41 39 40 37
5 6 5 4 5 3 3 3 1 2 2 2 2 2 2 2 3 2 4 6 7 17 19 22 24 28 30 30 31 31 32 33 36 38 35 38 41 40
6 7 5 6 6 4 4 1 1 2 2 2 3 2 2 3 2 2 3 4 6 8 13 18 21 24 27 29 29 29 31 32 34 35 36 37 37 37
6 7 5 8 10 5 2 1 1 1 2 4 2 2 3 3 2 3 3 2 2 5 6 9 8 10 13 20 22 26 28 31 32 33 34 35 36 36
7 5 5 10 10 10 9 9 5 3 3 3 1 1 3 2 2 2 2 3 3 4 4 7 8 9 10 11 27 26 26 28 29 31 32 32 31 31
7 6 6 5 6 3 8 11 11 13 8 3 3 0 2 3 2 3 2 2 2 4 2 4 6 8 8 11 25 27 25 26 26 27 27 28 29 30
6 5 6 4 3 4 3 3 3 4 2 2 4 1 4 4 4 2 2 2 1 2 4 2 3 6 7 8 23 23 25 24 25 26 25 25 25 27
5 5 5 5 7 9 4 3 3 3 2 6 8 11 12 16 11 1 2 2 2 3 4 2 3 2 4 6 8 20 22 23 21 22 25 23 22 21
3 2 9 6 9 8 4 3 3 3 2 4 5 6 8 7 14 6 0 3 1 3 3 3 3 2 3 3 7 8 8 19 21 21 22 21 20 7
4 3 1 9 10 9 7 4 5 3 1 3 2 3 3 4 4 4 4 4 3 1 4 2 2 2 2 2 3 4 6 7 7 9 19 21 20 13
5 3 2 10 10 9 5 6 9 4 3 3 3 3 2 2 3 3 3 2 1 3 5 2 2 2 2 3 2 4 4 5 5 4 5 11 15 16
4 8 7 9 9 3 7 4 5 4 3 2 1 2 2 3 2 2 3 3 3 4 5 4 4 1 3 2 1 3 3 4 4 3 4 4 4 3
9 6 4 6 6 3 2 2 1 3 3 3 2 2 2 2 2 0 0 1 2 3 5 5 4 3 2 3 2 2 3 3 4 3 3 3 4 4
7 3 3 3 2 1 1 1 1 2 3 1 1 1 1 1 2 2 1 1 2 1 3 3 4 3 3 3 3 2 3 3 2 2 3 3 3 3
3 3 2 3 3 3 2 1 0 2 2 2 1 2 1 1 1 2 2 2 2 0 1 2 3 3 3 3 2 0 2 2 3 4 2 2 3 3
3 3 4 4 4 4 4 3 3 3 2 2 2 1 2 2 2 1 1 2 1 0 1 1 2 3 3 1 3 1 1 2 3 3 2 1 2 4
2 3 4 5 4 5 5 4 2 3 2 3 2 2 1 2 1 1 1 1 0 1 2 2 2 1 3 4 3 3 8 0 1 2 3 2 3 8
4 3 4 4 4 5 5 5 5 4 3 3 2 2 1 2 1 1 1 2 1 1 1 1 2 3 1 2 4 4 3 11 7 2 2 2 3 3
4 5 4 3 5 5 4 5 4 3 3 3 3 3 2 2 2 2 2 2 1 1 1 1 3 3 2 1 1 2 3 4 7 11 12 9 2 3
4 4 4 4 4 4 5 5 5 4 4 4 4 3 3 2 2 2 2 2 2 1 1 1 2 2 2 2 1 2 3 3 3 4 4 12 13 12
Wind_Direction
103 112 118 90 79 87 167 200 306 343 322 58 8 34 15 17 5 356 346 10 10 8 10 13 8 12 15 16 24 27 22 22 27 38 33 339 252 190
111 107 102 86 82 75 21 264 223 256 281 7 64 9 45 14 3 359 354 8 4 12 11 14 16 17 20 22 27 34 32 28 28 37 43 48 44 209
110 111 93 92 93 56 25 358 305 299 270 167 39 45 40 354 350 350 355 8 355 16 13 15 19 20 23 27 29 34 37 40 34 38 40 47 50 50
124 100 87 109 76 58 37 38 310 322 282 286 28 4 56 360 354 13 8 4 2 17 20 15 18 23 24 31 32 34 38 39 40 45 40 44 48 48
105 102 103 100 83 68 54 20 347 35 3 106 2 336 325 24 330 333 34 359 11 17 20 17 14 21 25 27 34 37 39 39 38 41 44 42 46 45
116 100 97 93 89 68 68 299 51 58 31 77 56 355 346 322 335 352 340 36 15 10 13 19 17 14 22 26 31 40 43 46 45 44 44 44 44 47
122 110 110 106 96 95 110 312 127 88 71 62 51 9 348 353 349 301 292 310 27 15 357 15 3 9 9 19 28 36 47 48 47 49 47 48 46 43
125 102 107 88 84 96 103 102 110 103 76 92 50 70 281 242 276 294 311 14 350 32 357 15 10 13 6 17 27 39 48 47 46 48 50 50 51 51
121 126 114 114 101 88 107 92 87 83 86 125 115 60 304 239 269 310 13 69 30 332 308 27 8 26 12 6 28 30 44 47 46 46 48 52 54 51
122 129 115 105 138 155 135 83 38 20 354 87 100 261 235 267 226 284 341 103 139 19 352 69 338 23 9 15 23 33 36 53 50 51 51 52 50 54
115 107 133 135 204 184 116 113 55 334 317 119 75 51 27 32 31 94 358 258 353 321 346 90 328 350 4 4 3 27 35 36 50 56 58 54 55 53
107 112 147 169 184 159 142 137 110 252 29 18 12 3 12 12 38 49 319 101 90 5 289 64 350 23 7 321 21 12 8 29 39 45 51 62 55 46
130 115 342 182 177 170 161 156 196 181 83 81 44 15 10 2 3 19 37 100 102 275 279 126 22 358 83 311 341 358 15 7 14 30 34 43 44 62
155 161 182 177 179 174 163 226 188 116 55 30 35 4 11 342 309 342 345 31 188 189 293 145 114 116 119 10 353 342 347 8 14 12 9 25 31 30
150 174 178 168 163 149 185 172 139 129 123 73 349 294 241 250 268 321 340 23 33 13 20 26 97 111 81 118 129 309 3 339 360 360 359 13 359 349
164 166 118 106 94 96 42 65 122 147 149 155 195 241 296 357 30 95 71 348 47 356 12 29 44 79 67 43 88 357 346 42 333 336 344 346 8 14
128 98 85 81 106 105 39 123 104 118 107 115 112 87 38 30 14 338 46 56 79 349 337 345 6 66 75 136 50 360 338 342 310 318 17 347 334 352
126 130 142 148 164 174 183 196 53 122 128 124 102 114 115 109 71 17 36 60 118 11 11 332 350 16 11 342 133 218 329 308 315 330 356 37 324 316
117 157 160 167 188 187 186 183 180 186 156 118 118 102 132 121 105 66 55 39 79 145 352 359 26 79 65 347 296 339 134 291 329 351 335 336 269 298
140 150 173 183 195 197 188 179 156 147 128 131 113 109 111 132 115 96 69 130 121 133 59 26 33 62 149 204 223 283 22 290 73 329 317 318 281 328
175 163 179 183 184 182 176 165 155 167 154 143 139 135 128 127 110 114 127 68 86 69 93 30 317 302 135 80 26 330 324 8 39 345 309 13 321 315
164 181 182 179 171 167 154 153 140 143 150 152 148 143 147 133 141 154 154 131 113 142 119 37 4 354 21 77 218 268 313 341 356 9 7 13 155 291
173 191 178 167 159 150 153 159 163 163 163 163 157 160 156 136 156 146 152 148 119 101 96 16 0 11 356 54 38 321 3 341 355 344 330 350 345 329